Date String (YYYY-MM-DD hh:mm:ss) UTC,Instrument flags,Ambient pressure (hPa),Sample flow (lpm),Bypass flow (lpm),Sample temperature (°C),Ambient temperature (°C),ASC tube jacket temperature (°C),LED temperature (°C),Box temperature (°C),Sample RH (%),Span deviation,Mass concentration (μg/m³),Mass concentration (μg/m³),Mass concentration (μg/m³)
DateTimeUTC,F1_M11,P_M11,Q1_M11,Q2_M11,T1_M11,T2_M11,T3_M11,T4_M11,T5_M11,U1_M11,ZSPAN_M11,X0_M11,X2_M11,X1_M11
2022-01-23 19:00:00,,0826.6,5.00,0.00,25.2,24.4,00.0,34.1,27.0,08.9,0000.0,0003.29,0001.83,0001.45
2022-01-23 19:01:00,,0826.6,4.99,0.00,25.2,24.4,00.0,34.1,27.1,08.8,0000.0,0003.20,0001.81,0001.43
2022-01-23 19:02:00,,0826.6,5.01,0.00,25.2,24.4,00.0,34.1,27.1,08.9,0000.0,0003.26,0001.84,0001.44
2022-01-23 19:03:00,,0826.5,5.00,0.00,25.2,24.4,00.0,34.2,27.1,08.7,0000.0,0003.43,0001.87,0001.46
2022-01-23 19:04:00,,0826.5,4.99,0.00,25.2,24.4,00.0,34.2,27.1,08.7,0000.0,0003.54,0001.91,0001.47
2022-01-23 19:05:00,,0826.5,5.00,0.00,25.2,24.4,00.0,34.2,27.1,08.9,0000.0,0003.85,0001.95,0001.50
2022-01-23 19:06:00,,0826.5,5.01,0.00,25.2,24.4,00.0,34.2,27.0,09.1,0000.0,0004.38,0001.99,0001.51
2022-01-23 19:07:00,,0826.5,4.98,0.00,25.2,24.4,00.0,34.2,27.1,09.0,0000.0,0004.71,0002.03,0001.53
2022-01-23 19:08:00,,0826.5,5.01,0.00,25.2,24.4,00.0,34.2,27.0,08.8,0000.0,0004.76,0002.05,0001.56
2022-01-23 19:09:00,,0826.4,4.99,0.00,25.2,24.4,00.0,34.2,27.0,09.2,0000.0,0004.84,0002.07,0001.58
2022-01-23 19:10:00,,0826.3,5.01,0.00,25.2,24.4,00.0,34.2,27.0,09.1,0000.0,0004.67,0002.06,0001.60
2022-01-23 19:11:00,,0826.2,4.97,0.00,25.2,24.4,00.0,34.2,27.0,09.0,0000.0,0004.66,0002.11,0001.62
2022-01-23 19:12:00,,0826.2,5.01,0.00,25.2,24.4,00.0,34.2,27.0,09.0,0000.0,0004.86,0002.16,0001.66
2022-01-23 19:13:00,,0826.1,5.00,0.00,25.2,24.4,00.0,34.2,27.0,09.0,0000.0,0006.00,0002.22,0001.68
2022-01-23 19:14:00,,0826.1,5.00,0.00,25.2,24.4,00.0,34.2,27.0,09.1,0000.0,0007.15,0002.24,0001.68
2022-01-23 19:15:00,,0826.1,4.99,0.00,25.2,24.4,00.0,34.2,27.0,09.2,0000.0,0007.39,0002.25,0001.71
2022-01-23 19:16:00,,0826.1,5.01,0.00,25.2,24.4,00.0,34.2,27.0,09.1,0000.0,0007.33,0002.23,0001.73
2022-01-23 19:17:00,,0826.1,4.99,0.00,25.2,24.4,00.0,34.2,27.0,09.0,0000.0,0006.44,0002.23,0001.75
2022-01-23 19:18:00,,0826.1,5.00,0.00,25.2,24.4,00.0,34.2,27.0,09.2,0000.0,0006.12,0002.21,0001.77
2022-01-23 19:19:00,,0826.1,5.01,0.00,25.2,24.4,00.0,34.2,27.0,09.0,0000.0,0006.44,0002.28,0001.80
2022-01-23 19:20:00,,0826.0,4.99,0.00,25.2,24.4,00.0,34.2,27.0,08.9,0000.0,0006.68,0002.32,0001.84
2022-01-23 19:21:00,,0826.0,4.99,0.00,25.2,24.4,00.0,34.2,27.0,09.1,0000.0,0006.89,0002.41,0001.90
2022-01-23 19:22:00,,0826.0,5.01,0.00,25.2,24.4,00.0,34.2,27.0,09.4,0000.0,0007.40,0002.46,0001.94
2022-01-23 19:23:00,,0826.0,4.99,0.00,25.2,24.4,00.0,34.1,27.0,09.3,0000.0,0007.95,0002.53,0001.99
2022-01-23 19:24:00,,0826.0,4.99,0.00,25.2,24.4,00.0,34.2,27.0,09.2,0000.0,0007.73,0002.56,0002.03
2022-01-23 19:25:00,,0825.9,5.01,0.00,25.2,24.4,00.0,34.1,27.0,09.2,0000.0,0006.91,0002.63,0002.09
2022-01-23 19:26:00,,0825.9,5.00,0.00,25.2,24.4,00.0,34.1,26.9,09.2,0000.0,0006.82,0002.73,0002.14
2022-01-23 19:27:00,,0825.9,5.00,0.00,25.2,24.4,00.0,34.1,26.9,09.3,0000.0,0006.74,0002.77,0002.17
2022-01-23 19:28:00,,0825.9,5.00,0.00,25.2,24.4,00.0,34.1,26.9,09.3,0000.0,0006.73,0002.80,0002.22
2022-01-23 19:29:00,,0825.8,5.01,0.00,25.2,24.4,00.0,34.1,26.9,09.4,0000.0,0007.28,0002.88,0002.28
2022-01-23 19:30:00,,0825.7,5.01,0.00,25.2,24.4,00.0,34.1,26.9,09.5,0000.0,0007.56,0002.92,0002.32
2022-01-23 19:31:00,,0825.7,4.99,0.00,25.2,24.4,00.0,34.1,26.9,09.6,0000.0,0007.61,0002.96,0002.35
2022-01-23 19:32:00,,0825.7,5.00,0.00,25.2,24.4,00.0,34.1,26.9,09.6,0000.0,0007.61,0002.98,0002.36
2022-01-23 19:33:00,,0825.6,5.02,0.00,25.2,24.5,00.0,34.1,26.9,09.5,0000.0,0007.23,0002.97,0002.38
2022-01-23 19:34:00,,0825.6,4.99,0.00,25.1,24.4,00.0,34.1,26.9,09.5,0000.0,0006.43,0002.96,0002.41
2022-01-23 19:35:00,,0825.6,5.01,0.00,25.1,24.4,00.0,34.1,26.9,09.7,0000.0,0005.92,0003.03,0002.44
2022-01-23 19:36:00,,0825.6,4.99,0.00,25.1,24.4,00.0,34.1,26.9,09.7,0000.0,0006.07,0003.10,0002.47
2022-01-23 19:37:00,,0825.6,5.01,0.00,25.2,24.4,00.0,34.1,26.9,09.4,0000.0,0006.58,0003.08,0002.49
2022-01-23 19:38:00,,0825.5,4.98,0.00,25.1,24.4,00.0,34.1,26.9,09.4,0000.0,0007.16,0003.11,0002.53
2022-01-23 19:39:00,,0825.5,5.01,0.00,25.1,24.4,00.0,34.1,26.9,09.5,0000.0,0007.34,0003.15,0002.56
2022-01-23 19:40:00,,0825.5,5.00,0.00,25.1,24.5,00.0,34.1,26.9,09.5,0000.0,0007.13,0003.18,0002.58
2022-01-23 19:41:00,,0825.5,4.99,0.00,25.1,24.5,00.0,34.1,26.9,09.5,0000.0,0006.74,0003.20,0002.60
2022-01-23 19:42:00,,0825.4,5.01,0.00,25.1,24.5,00.0,34.1,26.9,09.4,0000.0,0006.48,0003.21,0002.62
2022-01-23 19:43:00,,0825.4,5.00,0.00,25.1,24.5,00.0,34.1,26.9,09.4,0000.0,0006.49,0003.21,0002.64
2022-01-23 19:44:00,,0825.4,4.99,0.00,25.2,24.5,00.0,34.1,27.0,09.7,0000.0,0006.62,0003.22,0002.66
2022-01-23 19:45:00,,0825.3,5.00,0.00,25.2,24.5,00.0,34.1,26.9,09.6,0000.0,0007.10,0003.28,0002.68
2022-01-23 19:46:00,,0825.3,5.00,0.00,25.2,24.5,00.0,34.1,27.0,09.5,0000.0,0007.20,0003.29,0002.69
2022-01-23 19:47:00,,0825.3,5.00,0.00,25.2,24.5,00.0,34.1,27.0,09.1,0000.0,0007.03,0003.26,0002.68
2022-01-23 19:48:00,,0825.3,5.01,0.00,25.2,24.5,00.0,34.1,27.0,09.2,0000.0,0006.57,0003.27,0002.68
2022-01-23 19:49:00,,0825.2,5.00,0.00,25.2,24.5,00.0,34.1,27.0,09.0,0000.0,0005.83,0003.26,0002.65
2022-01-23 19:50:00,,0825.2,4.98,0.00,25.2,24.5,00.0,34.1,27.0,09.0,0000.0,0005.53,0003.21,0002.62
2022-01-23 19:51:00,,0825.2,5.00,0.00,25.2,24.5,00.0,34.1,26.9,09.1,0000.0,0005.44,0003.17,0002.58
2022-01-23 19:52:00,,0825.2,5.00,0.00,25.2,24.5,00.0,34.1,27.0,09.0,0000.0,0005.12,0003.14,0002.56
2022-01-23 19:53:00,,0825.1,4.99,0.00,25.2,24.5,00.0,34.1,27.0,08.9,0000.0,0005.90,0003.14,0002.53
2022-01-23 19:54:00,,0825.2,5.01,0.00,25.2,24.5,00.0,34.1,27.0,08.9,0000.0,0005.89,0003.12,0002.49
2022-01-23 19:55:00,,0825.1,5.01,0.00,25.2,24.5,00.0,34.1,27.0,09.0,0000.0,0005.78,0003.10,0002.46
2022-01-23 19:56:00,,0825.1,4.99,0.00,25.2,24.5,00.0,34.1,26.9,09.1,0000.0,0005.28,0002.99,0002.41
2022-01-23 19:57:00,,0825.1,5.00,0.00,25.2,24.5,00.0,34.1,26.9,08.9,0000.0,0005.04,0002.86,0002.36
2022-01-23 19:58:00,,0825.1,5.01,0.00,25.2,24.5,00.0,34.1,26.9,08.6,0000.0,0004.83,0002.76,0002.29
2022-01-23 19:59:00,,0825.1,4.98,0.00,25.2,24.5,00.0,34.1,26.9,08.4,0000.0,0004.62,0002.63,0002.22
